Zurück zum Katalog

STARLINK-34299

AktivKommunikationVLEO
NORAD 64383·PAYLOAD·🇺🇸 United States

Gestartet Jun 13, 2025 von Cape Canaveral Space Force Station

Loading…

Nächste Überflüge (nächste 24 Stunden)

TLE

AktuellSource: CelesTrak SupGP

Epoche: Sep 14, 2026, 14:22 UTC

1 64383C 25127P   26257.59909722 -.00002403  00000+0 -87062-4 0  2570
2 64383  43.0017 193.3073 0001398 261.6912 106.3680 15.27564453    12

Verfolge STARLINK-34299 in Echtzeit mit AllMySat

Download on the App Store